Regional Weather Roundup
Issued by NWS Goodland, KS

Home | Current Version | Previous Version | Graphics & Text | Print | Product List | Glossary On
Versions: 1 2 3 4 5 6 7 8 9 10 11 12 13 14 15 16 17 18 19 20 21 22 23 24 25 26 27 28 29 30 31 32 33 34 35 36 37 38 39 40 41 42 43 44 45 46 47 48 49 50
000
ASUS43 KGLD 280559
RWRGLD

GOODLAND FORECAST AREA HOURLY WEATHER ROUNDUP
NATIONAL WEATHER SERVICE GOODLAND KS
1200 AM MDT THU JUL 28 2016

...OFFICIAL OBSERVATIONS...

CITY           SKY/WX    TMP DP  RH WIND       PRES   REMARKS
GOODLAND KS    CLOUDY    64  58  80 SW12      30.13R
HILL CITY KS   CLOUDY    74  69  85 E3        30.06F
IMPERIAL NEB   CLEAR     70  65  84 NE9       30.14R
MCCOOK NEB     CLOUDY    72  67  84 E5        30.08F
AKRON CO       CLEAR     66  59  78 E9        30.21R
BURLINGTON CO  CLOUDY    63  59  87 SE20G31   30.20R
LIMON CO       CLEAR     66  57  72 SE7       30.23F
$$

...UNOFFICIAL OBSERVATIONS...

CITY           SKY/WX    TMP DP  RH WIND       PRES   REMARKS
COLBY KS       RAIN      73  70  88 NE15      30.12R
LENORA KS        N/A     74  32  21 MISG        N/A
NORTON KS      PTCLDY    73  64  73 NE5       30.07R
KIT CARSON CO    N/A     70  59  67 CALM        N/A
YUMA CO          N/A     68  62  82 CALM        N/A
$$




USA.gov is the U.S. government's official web portal to all federal, state and local government web resources and services.